To NAV CANADA Home Page Login to a new session Search on AWWS site Feedback and Comments Disclaimer Vers la page française équivalente Tips FAQ What's new on the site To the Forecasts and Observations / NOTAM section To "File a Flight Plan" website Publications and other links Update of the User's profile FIC Telephone Numbers My Weather Data Folder Route Weather Data Regional Weather Data Local Weather Data To the Forecasts and Observations / NOTAM section
Request Generated 10/17/2017 at 01:41:51 UTC . Weather information available at that time is displayed.

METAR/TAF

SALLUIT/QC    

LWIS CYZG 170100Z AUTO 24011KT M05/M07 A2960=
LWIS CYZG 170000Z AUTO 25012KT M05/M07 A2959=
LWIS CYZG 162300Z AUTO 24009KT M05/M06 A2958=

*** REMARK        : Forecast period has ended; this was the last TAF issued
*** REMARQUE : La période de prévision est échue; ceci était le dernier TAF qui a été émis
TAF CYZG 161342Z 1614/1621 24008KT 1SM -SN BR SCT006 OVC012 TEMPO
1614/1621 4SM -SN BKN012 OVC025
BECMG 1614/1616 30012KT
RMK NXT FCST WILL BE ISSUED AT 171345Z=
Your time UTC time
Weather data provided by Environment Canada and NAV CANADA